DELTA 1 DEB, 7957

Orbit data source: Space-Track

DELTA 1 DEB, 7957 is space debris in SSO originally from a launch on Sun, 23 Jul 1972 UTC launched from the Air Force Western Test Range (AFWTR). Debris objects in space refer to the collection of defunct objects orbiting the Earth. Examples of debris include non-operational satellites, rocket bodies, and fragments generated from explosions, collisions, or faulty payload assembly.

Loading next visibility...
Identifier
7957, 1972-058CM
Orbit
SSO
Country
Flag of USUS
Related business
Manufacturer
Unknown
Mission
Spacecraft
Bus & Motor
Unknown
Mass
Unknown
Launch date (UTC)
1972-07-23 (53 years ago)
Launch vehicle
Unknown
Launch site
Air Force Western Test Range (AFWTR)
Object type
Payload
Rocket body
Debris
Shape & HBR
Unknown shape, 0.2 m
Radar Cross Section
Medium (>0.1 m² and <1 m²)

Expand to show TLE details & history
Last TLE update: 12 hours ago

TLE from 12 hours ago
0 DELTA 1 DEB
1  7957U 72058CM  25299.57004058  .00001486  00000-0  76243-3 0  9990
2  7957  98.9258 164.7388 0514405  81.0148 284.8835 13.64685508777194
Epoch: 2025-10-26T13:40Z
TLE epoch observation values (Epoch: 2025-10-26T13:40:51.506Z)
Latitude
Longitude
-75.66015°
Altitude
942.423 km
Speed
7.42 km/s
True Right ascension
10h 58m 57s
True Declination
0° 00' 00"
Sunlit
Object was in daylight at epoch
Visualization orbit readout
Latitude
Unknown
Longitude
Unknown
Altitude
Unknown
Speed
Unknown
Apparent Right ascension
Unknown
Apparent Declination
Unknown
Sunlit
N/A
Visualization observer readout
Local Sidereal Time
21:17:52
Azimuth
Unknown
Elevation
Unknown
Doppler factor
Unknown
Orbital elements
Apogee altitude
1,396.3 km
Perigee altitude
635.59 km
Semi-major axis
7,394.082 km
Eccentricity
0.05144
Inclination
98.9258°
RAAN
164.7388°
Arg. of periapsis
81.0148°
True anomaly
279.10087°
Mean anomaly
284.8835°
Eccentric anomaly
282.00059°
Mean motion
3.41363 °/min
Orbital period
105.46 mins
BSTAR
0.00076243
Loading maneuver chart data...
Computing Atmospheric mass density...
Loading historical data...
Loading historical data...
Loading historical data...
Loading historical data...
Loading historical data...
Loading historical data...
Loading historical data...

Documentation

Showing up to 5 results
|